Погода в Кастельдефельсе

Испания     41°16′43″N   1°58′40″E
темп.,
°C
ветер,
м/с
пор.,
м/с
влажн.,
%
обл.,
%
осадки,
мм/ч
давл.,
гПа
погр.,
м
14 апреля, ср
ср1423:00+13зюз347798 0.0 1023422
02:00+13зюз2376100 0.0 1022368
05:00+13зюз227495 0.0 1021333
08:00+13св117440 0.0 1021229
11:00+13в656465 0.0 1022611
14:00+13вюв5361100 0.0 1021648
17:00+13юв4363100 0.0 1020643
20:00+12в4464100 0.0 1020511
15 апреля, чт
чт1523:00+13всв335895 0.0 1021429
02:00+13всв235499 0.0 1020401
05:00+13всв335694 0.0 1019358
08:00+12всв7859100 0.0 1019588
11:00+12в66549 0.0 1020638
14:00+12в775886 0.0 1019778
17:00+12в6660100 0.0 1018684
20:00+12в566199 0.0 1018559
16 апреля, пт
пт1623:00+13св2355100 0.0 1018586
02:00+13ссз2363100 0.0 1017399
05:00+12св3455100 0.1 1016618
08:00+12ссв4556100 0.1 1016789
11:00+12св4548100 0.0 10171483
14:00+12в4454100 0.0 10171146
17:00+12вюв4454100 0.1 10161075
20:00+12св4558100 0.2 1016494
17 апреля, сб
сб1723:00+12с225199 0.0 1017889
02:00+11сз3462100 0.1 1016317
05:00+10ссз6861100 0.0 1015403
08:00+10ссз6759100 0.0 1016372
11:00+11ссз3350100 0.0 1016388
14:00+14юз12344 0.0 1015751
17:00+15ююз6545100 0.0 1014781
20:00+13ю665420 0.0 1016531
18 апреля, вс
вс1823:00+13ююз675731 0.0 1017513
02:00+13юз44650 0.0 1017336
05:00+12с44590 0.0 1017209
08:00+11с46480 0.0 1018323
11:00+12с23380 0.0 1019580
14:00+13ю44430 0.0 1018711
17:00+13ю55540 0.0 1018494
20:00+14ююв436619 0.0 1019690